Weather in Bremerhaven

Germany     53°32′16″N   8°35′22″E
temp.,
°C
wind,
m/s
gust,
m/s
humid.,
%
clouds,
%
prec.,
mm/h
press.,
hPa
HPBL,
m
7 march, sun
sun701:00+2w598317 0.0 1028513
04:00+2w5978100 0.0 1026702
07:00+2w6975100 0.1 1025782
10:00+3w6978100 0.1 1024746
13:00+4wnw6878100 0.2 1023893
16:00+5wnw697698 0.1 1021863
19:00+3wnw489299 0.1 1021218
22:00+4nw4795100 0.3 1022373
8 march, mon
mon801:00+1n238186 0.3 102283
04:00−1ene34800 0.0 1022112
07:00−2e346611 0.0 1023102
10:00+2se345171 0.0 1024368
13:00+5sse334476 0.0 1023884
16:00+5s235390 0.0 1022858
19:00+3ssw336895 0.0 1021126
22:00+2se5697100 0.5 1021186
9 march, tue
tue901:00+3sse5798100 2.3 1020255
04:00+3ssw4798100 1.9 1018297
07:00+3sw5797100 2.9 1018230
10:00+5w469399 0.2 1018323
13:00+8nw458191 0.5 1019604
16:00+7nnw358128 0.2 1018366
19:00+4wnw229136 0.3 101924
22:00+3sw239036 0.0 101933
10 march, wed
wed1001:00+3s479464 0.0 1018153
04:00+3s51093100 0.0 1016255
07:00+4s61489100 0.0 1014459
10:00+6ssw81477100 0.0 1012924
13:00+7ssw91672100 0.1 10101232
16:00+5ssw101787100 1.3 1007892
19:00+5ssw81593100 5.5 1005637
22:00+6ssw81692100 1.7 1002669
11 march, thu
thu1101:00+7ssw91793100 2.9 998691
04:00+9sw111992100 1.9 994985
07:00+10sw122285100 3.0 9911095
10:00+11wsw142970100 1.3 9901871
13:00+10sw14256375 1.3 9882108
16:00+7wsw182778100 0.6 9871825
19:00+6wsw152684100 2.8 9901674
22:00+6wsw122170100 0.3 9941434